Вернуться в каталог

SL-12 DEB

LostHEO
NORAD 29331·DEBRIS·🇷🇺 Russia

Запущен May 31, 1989 с Baikonur Cosmodrome

Loading…

Ближайшие Пролёты (ближайшие 24 часа)

TLE

УстаревшееSource: Space-Track

Эпоха: Oct 23, 2006, 21:03 UTC

1 29331U 89039AN  06296.87729248 -.00001424  00000-0 -20435-1 0  9995
2 29331  65.4754 242.0285 5458138  65.4406 340.3634  4.38084311  3764

Отслеживайте SL-12 DEB в реальном времени с AllMySat

Download on the App Store